Time,TemperatureF,DewpointF,PressureIn,WindDirection,WindDirectionDegrees,WindSpeedMPH,WindSpeedGustMPH,Humidity,HourlyPrecipIn,Conditions,Clouds,dailyrainin,SolarRadiationWatts/m^2,SoftwareType,DateUTC
2013-01-16 00:02:00,33.0,30.0,-100.00,North,353,3.0,11.0,90,0.03,,,0.22,0.000000,,2013-01-16 06:02:00,
2013-01-16 00:12:00,33.0,30.0,-100.00,North,353,3.0,11.0,90,0.03,,,0.22,0.000000,,2013-01-16 06:12:00,
2013-01-16 00:22:00,33.0,30.0,-100.00,North,353,3.0,11.0,90,0.03,,,0.22,0.000000,,2013-01-16 06:22:00,
2013-01-16 00:32:00,32.0,29.0,-100.00,NNW,341,4.0,9.0,90,0.01,,,0.23,0.000000,,2013-01-16 06:32:00,
2013-01-16 00:53:00,32.0,29.0,-100.00,NNW,341,4.0,9.0,90,0.01,,,0.23,0.000000,,2013-01-16 06:53:00,
2013-01-16 01:02:00,32.0,29.0,-100.00,NNW,341,4.0,9.0,90,0.01,,,0.23,0.000000,,2013-01-16 07:02:00,
2013-01-16 01:12:00,32.0,29.0,-100.00,NNW,341,4.0,9.0,90,0.01,,,0.23,0.000000,,2013-01-16 07:12:00,
2013-01-16 01:22:00,32.0,29.0,-100.00,NNW,341,4.0,9.0,90,0.01,,,0.23,0.000000,,2013-01-16 07:22:00,
2013-01-16 01:32:00,32.0,29.0,-100.00,North,7,3.0,8.0,90,0.05,,,0.28,0.000000,,2013-01-16 07:32:00,
2013-01-16 01:52:00,32.0,29.0,-100.00,North,7,3.0,8.0,90,0.05,,,0.28,0.000000,,2013-01-16 07:52:00,
2013-01-16 02:02:00,32.0,29.0,-100.00,North,7,3.0,8.0,90,0.05,,,0.28,0.000000,,2013-01-16 08:02:00,
2013-01-16 02:12:00,32.0,29.0,-100.00,North,7,3.0,8.0,90,0.05,,,0.28,0.000000,,2013-01-16 08:12:00,
2013-01-16 02:22:00,32.0,29.0,-100.00,North,7,3.0,8.0,90,0.05,,,0.28,0.000000,,2013-01-16 08:22:00,
2013-01-16 02:32:00,32.0,29.0,-100.00,North,11,3.0,11.0,89,0.00,,,0.28,0.000000,,2013-01-16 08:32:00,
2013-01-16 02:53:00,32.0,29.0,-100.00,North,11,3.0,11.0,89,0.00,,,0.28,0.000000,,2013-01-16 08:53:00,
2013-01-16 03:02:00,32.0,29.0,-100.00,North,11,3.0,11.0,89,0.00,,,0.28,0.000000,,2013-01-16 09:02:00,
2013-01-16 03:12:00,32.0,29.0,-100.00,North,11,3.0,11.0,89,0.00,,,0.28,0.000000,,2013-01-16 09:12:00,
2013-01-16 03:22:00,32.0,29.0,-100.00,North,11,3.0,11.0,89,0.00,,,0.28,0.000000,,2013-01-16 09:22:00,
2013-01-16 03:32:00,32.0,29.0,-100.00,North,352,3.0,7.0,89,0.00,,,0.28,0.000000,,2013-01-16 09:32:00,
2013-01-16 03:53:00,32.0,29.0,-100.00,North,352,3.0,7.0,89,0.00,,,0.28,0.000000,,2013-01-16 09:53:00,
2013-01-16 04:02:00,32.0,29.0,-100.00,North,352,3.0,7.0,89,0.00,,,0.28,0.000000,,2013-01-16 10:02:00,
2013-01-16 04:12:00,32.0,29.0,-100.00,North,352,3.0,7.0,89,0.00,,,0.28,0.000000,,2013-01-16 10:12:00,
2013-01-16 04:22:00,32.0,29.0,-100.00,North,352,3.0,7.0,89,0.00,,,0.28,0.000000,,2013-01-16 10:22:00,
2013-01-16 04:32:00,32.0,29.0,-100.00,North,9,3.0,11.0,89,0.00,,,0.28,0.000000,,2013-01-16 10:32:00,
2013-01-16 04:53:00,32.0,29.0,-100.00,North,9,3.0,11.0,89,0.00,,,0.28,0.000000,,2013-01-16 10:53:00,
2013-01-16 05:02:00,32.0,29.0,-100.00,North,9,3.0,11.0,89,0.00,,,0.28,0.000000,,2013-01-16 11:02:00,
2013-01-16 05:12:00,32.0,29.0,-100.00,North,9,3.0,11.0,89,0.00,,,0.28,0.000000,,2013-01-16 11:12:00,
2013-01-16 05:22:00,32.0,29.0,-100.00,North,9,3.0,11.0,89,0.00,,,0.28,0.000000,,2013-01-16 11:22:00,
2013-01-16 05:32:00,32.0,29.0,-100.00,WNW,292,4.0,12.0,90,0.00,,,0.28,0.000000,,2013-01-16 11:32:00,
2013-01-16 05:53:00,32.0,29.0,-100.00,WNW,292,4.0,12.0,90,0.00,,,0.28,0.000000,,2013-01-16 11:53:00,
2013-01-16 06:03:00,32.0,29.0,-100.00,WNW,292,4.0,12.0,90,0.00,,,0.28,0.000000,,2013-01-16 12:03:00,
2013-01-16 06:13:00,32.0,29.0,-100.00,WNW,292,4.0,12.0,90,0.00,,,0.28,0.000000,,2013-01-16 12:13:00,
2013-01-16 06:22:00,32.0,29.0,-100.00,WNW,292,4.0,12.0,90,0.00,,,0.28,0.000000,,2013-01-16 12:22:00,
2013-01-16 06:32:00,33.0,30.0,-100.00,NNE,18,3.0,10.0,90,0.00,,,0.28,0.000000,,2013-01-16 12:32:00,
2013-01-16 06:53:00,33.0,30.0,-100.00,NNE,18,3.0,10.0,90,0.00,,,0.28,0.000000,,2013-01-16 12:53:00,
2013-01-16 07:03:00,33.0,30.0,-100.00,NNE,18,3.0,10.0,90,0.00,,,0.28,0.000000,,2013-01-16 13:03:00,
2013-01-16 07:12:00,33.0,30.0,-100.00,NNE,18,3.0,10.0,90,0.00,,,0.28,0.000000,,2013-01-16 13:12:00,
2013-01-16 07:22:00,33.0,30.0,-100.00,NNE,18,3.0,10.0,90,0.00,,,0.28,0.000000,,2013-01-16 13:22:00,
2013-01-16 07:32:00,33.0,30.0,-100.00,NNE,29,4.0,10.0,90,0.02,,,0.29,0.000000,,2013-01-16 13:32:00,
2013-01-16 07:53:00,33.0,30.0,-100.00,NNE,29,4.0,10.0,90,0.02,,,0.29,0.000000,,2013-01-16 13:53:00,
2013-01-16 08:03:00,33.0,30.0,-100.00,NNE,29,4.0,10.0,90,0.02,,,0.29,0.000000,,2013-01-16 14:03:00,
2013-01-16 08:12:00,33.0,30.0,-100.00,NNE,29,4.0,10.0,90,0.02,,,0.29,0.000000,,2013-01-16 14:12:00,
2013-01-16 08:23:00,33.0,30.0,-100.00,NNE,29,4.0,10.0,90,0.02,,,0.29,0.000000,,2013-01-16 14:23:00,
2013-01-16 08:32:00,33.0,30.0,-100.00,NNW,345,3.0,10.0,90,0.01,,,0.28,7.000000,,2013-01-16 14:32:00,
2013-01-16 08:53:00,33.0,30.0,-100.00,NNW,345,3.0,10.0,90,0.01,,,0.28,7.000000,,2013-01-16 14:53:00,
2013-01-16 09:03:00,33.0,30.0,-100.00,NNW,345,3.0,10.0,90,0.01,,,0.28,7.000000,,2013-01-16 15:03:00,
2013-01-16 09:12:00,33.0,30.0,-100.00,NNW,345,3.0,10.0,90,0.01,,,0.28,7.000000,,2013-01-16 15:12:00,
2013-01-16 09:23:00,33.0,30.0,-100.00,NNW,345,3.0,10.0,90,0.01,,,0.28,7.000000,,2013-01-16 15:23:00,
2013-01-16 09:32:00,33.0,30.0,-100.00,NW,324,3.0,6.0,90,0.00,,,0.28,16.000000,,2013-01-16 15:32:00,
2013-01-16 09:53:00,33.0,30.0,-100.00,NW,324,3.0,6.0,90,0.00,,,0.28,16.000000,,2013-01-16 15:53:00,
2013-01-16 10:03:00,33.0,30.0,-100.00,NW,324,3.0,6.0,90,0.00,,,0.28,16.000000,,2013-01-16 16:03:00,
2013-01-16 10:12:00,33.0,30.0,-100.00,NW,324,3.0,6.0,90,0.00,,,0.28,16.000000,,2013-01-16 16:12:00,
2013-01-16 10:22:00,33.0,30.0,-100.00,NW,324,3.0,6.0,90,0.00,,,0.28,16.000000,,2013-01-16 16:22:00,
2013-01-16 10:32:00,34.0,31.0,-100.00,NW,306,3.0,7.0,90,0.01,,,0.27,33.000000,,2013-01-16 16:32:00,
2013-01-16 10:53:00,34.0,31.0,-100.00,NW,306,3.0,7.0,90,0.01,,,0.27,33.000000,,2013-01-16 16:53:00,
2013-01-16 11:03:00,34.0,31.0,-100.00,NW,306,3.0,7.0,90,0.01,,,0.27,33.000000,,2013-01-16 17:03:00,
2013-01-16 11:12:00,34.0,31.0,-100.00,NW,306,3.0,7.0,90,0.01,,,0.27,33.000000,,2013-01-16 17:12:00,
2013-01-16 11:23:00,34.0,31.0,-100.00,NW,306,3.0,7.0,90,0.01,,,0.27,33.000000,,2013-01-16 17:23:00,
2013-01-16 11:32:00,34.0,31.0,-100.00,NW,306,5.0,9.0,90,0.00,,,0.26,52.000000,,2013-01-16 17:32:00,
2013-01-16 11:53:00,34.0,31.0,-100.00,NW,306,5.0,9.0,90,0.00,,,0.26,52.000000,,2013-01-16 17:53:00,
2013-01-16 12:03:00,34.0,31.0,-100.00,NW,306,5.0,9.0,90,0.00,,,0.26,52.000000,,2013-01-16 18:03:00,
2013-01-16 12:13:00,34.0,31.0,-100.00,NW,306,5.0,9.0,90,0.00,,,0.26,52.000000,,2013-01-16 18:13:00,
2013-01-16 12:23:00,34.0,31.0,-100.00,NW,306,5.0,9.0,90,0.00,,,0.26,52.000000,,2013-01-16 18:23:00,
2013-01-16 12:32:00,35.0,32.0,-100.00,North,11,3.0,11.0,89,0.00,,,0.23,93.000000,,2013-01-16 18:32:00,
2013-01-16 12:53:00,35.0,32.0,-100.00,North,11,3.0,11.0,89,0.00,,,0.23,93.000000,,2013-01-16 18:53:00,
2013-01-16 13:03:00,35.0,32.0,-100.00,North,11,3.0,11.0,89,0.00,,,0.23,93.000000,,2013-01-16 19:03:00,
2013-01-16 13:12:00,35.0,32.0,-100.00,North,11,3.0,11.0,89,0.00,,,0.23,93.000000,,2013-01-16 19:12:00,
2013-01-16 13:23:00,35.0,32.0,-100.00,North,11,3.0,11.0,89,0.00,,,0.23,93.000000,,2013-01-16 19:23:00,
2013-01-16 13:32:00,36.0,30.0,-100.00,NW,318,3.0,10.0,79,0.00,,,0.20,131.000000,,2013-01-16 19:32:00,
2013-01-16 14:03:00,36.0,30.0,-100.00,NW,318,3.0,10.0,79,0.00,,,0.20,131.000000,,2013-01-16 20:03:00,
2013-01-16 14:12:00,36.0,30.0,-100.00,NW,318,3.0,10.0,79,0.00,,,0.20,131.000000,,2013-01-16 20:12:00,
2013-01-16 14:23:00,36.0,30.0,-100.00,NW,318,3.0,10.0,79,0.00,,,0.20,131.000000,,2013-01-16 20:23:00,
2013-01-16 14:32:00,36.0,30.0,-100.00,NW,312,3.0,7.0,79,0.00,,,0.19,101.000000,,2013-01-16 20:32:00,
2013-01-16 14:53:00,36.0,30.0,-100.00,NW,312,3.0,7.0,79,0.00,,,0.19,101.000000,,2013-01-16 20:53:00,
2013-01-16 15:03:00,36.0,30.0,-100.00,NW,312,3.0,7.0,79,0.00,,,0.19,101.000000,,2013-01-16 21:03:00,
2013-01-16 15:12:00,36.0,30.0,-100.00,NW,312,3.0,7.0,79,0.00,,,0.19,101.000000,,2013-01-16 21:12:00,
2013-01-16 15:22:00,36.0,30.0,-100.00,NW,312,3.0,7.0,79,0.00,,,0.19,101.000000,,2013-01-16 21:22:00,
2013-01-16 15:32:00,36.0,32.0,-100.00,NW,305,3.0,6.0,86,0.00,,,0.19,85.000000,,2013-01-16 21:32:00,
2013-01-16 15:53:00,36.0,32.0,-100.00,NW,305,3.0,6.0,86,0.00,,,0.19,85.000000,,2013-01-16 21:53:00,
2013-01-16 16:03:00,36.0,32.0,-100.00,NW,305,3.0,6.0,86,0.00,,,0.19,85.000000,,2013-01-16 22:03:00,
2013-01-16 16:12:00,36.0,32.0,-100.00,NW,305,3.0,6.0,86,0.00,,,0.19,85.000000,,2013-01-16 22:12:00,
2013-01-16 16:23:00,36.0,32.0,-100.00,NW,305,3.0,6.0,86,0.00,,,0.19,85.000000,,2013-01-16 22:23:00,
2013-01-16 16:32:00,37.0,33.0,-100.00,NNW,343,2.0,6.0,86,0.00,,,0.19,35.000000,,2013-01-16 22:32:00,
2013-01-16 16:53:00,37.0,33.0,-100.00,NNW,343,2.0,6.0,86,0.00,,,0.19,35.000000,,2013-01-16 22:53:00,
2013-01-16 17:03:00,37.0,33.0,-100.00,NNW,343,2.0,6.0,86,0.00,,,0.19,35.000000,,2013-01-16 23:03:00,
2013-01-16 17:12:00,37.0,33.0,-100.00,NNW,343,2.0,6.0,86,0.00,,,0.19,35.000000,,2013-01-16 23:12:00,
2013-01-16 17:23:00,37.0,33.0,-100.00,NNW,343,2.0,6.0,86,0.00,,,0.19,35.000000,,2013-01-16 23:23:00,
2013-01-16 17:32:00,37.0,33.0,-100.00,WNW,291,2.0,4.0,86,0.00,,,0.19,8.000000,,2013-01-16 23:32:00,
2013-01-16 17:53:00,37.0,33.0,-100.00,WNW,291,2.0,4.0,86,0.00,,,0.19,8.000000,,2013-01-16 23:53:00,
2013-01-16 18:02:00,37.0,33.0,-100.00,WNW,291,2.0,4.0,86,0.00,,,0.19,8.000000,,2013-01-17 00:02:00,
2013-01-16 18:12:00,37.0,33.0,-100.00,WNW,291,2.0,4.0,86,0.00,,,0.19,8.000000,,2013-01-17 00:12:00,
2013-01-16 18:22:00,37.0,33.0,-100.00,WNW,291,2.0,4.0,86,0.00,,,0.19,8.000000,,2013-01-17 00:22:00,
2013-01-16 18:32:00,37.0,34.0,-100.00,West,280,3.0,5.0,87,0.01,,,0.19,0.000000,,2013-01-17 00:32:00,
2013-01-16 18:52:00,37.0,34.0,-100.00,West,280,3.0,5.0,87,0.01,,,0.19,0.000000,,2013-01-17 00:52:00,
2013-01-16 19:02:00,37.0,34.0,-100.00,West,280,3.0,5.0,87,0.01,,,0.19,0.000000,,2013-01-17 01:02:00,
2013-01-16 19:12:00,37.0,34.0,-100.00,West,280,3.0,5.0,87,0.01,,,0.19,0.000000,,2013-01-17 01:12:00,
2013-01-16 19:22:00,37.0,34.0,-100.00,West,280,3.0,5.0,87,0.01,,,0.19,0.000000,,2013-01-17 01:22:00,
2013-01-16 19:32:00,37.0,34.0,-100.00,NW,310,2.0,5.0,89,0.00,,,0.18,0.000000,,2013-01-17 01:32:00,
2013-01-16 19:52:00,37.0,34.0,-100.00,NW,310,2.0,5.0,89,0.00,,,0.18,0.000000,,2013-01-17 01:52:00,
2013-01-16 20:02:00,37.0,34.0,-100.00,NW,310,2.0,5.0,89,0.00,,,0.18,0.000000,,2013-01-17 02:02:00,
2013-01-16 20:12:00,37.0,34.0,-100.00,NW,310,2.0,5.0,89,0.00,,,0.18,0.000000,,2013-01-17 02:12:00,
2013-01-16 20:22:00,37.0,34.0,-100.00,NW,310,2.0,5.0,89,0.00,,,0.18,0.000000,,2013-01-17 02:22:00,
2013-01-16 20:32:00,37.0,34.0,-100.00,NNW,341,0.0,4.0,90,0.00,,,0.18,0.000000,,2013-01-17 02:32:00,
2013-01-16 21:03:00,37.0,34.0,-100.00,NNW,341,0.0,4.0,90,0.00,,,0.18,0.000000,,2013-01-17 03:03:00,
2013-01-16 21:12:00,37.0,34.0,-100.00,NNW,341,0.0,4.0,90,0.00,,,0.18,0.000000,,2013-01-17 03:12:00,
2013-01-16 21:22:00,37.0,34.0,-100.00,NNW,341,0.0,4.0,90,0.00,,,0.18,0.000000,,2013-01-17 03:22:00,
2013-01-16 21:32:00,37.0,35.0,-100.00,NW,309,2.0,3.0,91,0.00,,,0.18,0.000000,,2013-01-17 03:32:00,
2013-01-16 21:53:00,37.0,35.0,-100.00,NW,309,2.0,3.0,91,0.00,,,0.18,0.000000,,2013-01-17 03:53:00,
2013-01-16 22:02:00,37.0,35.0,-100.00,NW,309,2.0,3.0,91,0.00,,,0.18,0.000000,,2013-01-17 04:02:00,
2013-01-16 22:12:00,37.0,35.0,-100.00,NW,309,2.0,3.0,91,0.00,,,0.18,0.000000,,2013-01-17 04:12:00,
2013-01-16 22:22:00,37.0,35.0,-100.00,NW,309,2.0,3.0,91,0.00,,,0.18,0.000000,,2013-01-17 04:22:00,
2013-01-16 22:32:00,37.0,35.0,-100.00,WSW,257,2.0,3.0,91,0.00,,,0.14,0.000000,,2013-01-17 04:32:00,
2013-01-16 22:52:00,37.0,35.0,-100.00,WSW,257,2.0,3.0,91,0.00,,,0.14,0.000000,,2013-01-17 04:52:00,
2013-01-16 23:04:00,37.0,35.0,-100.00,WSW,257,2.0,3.0,91,0.00,,,0.14,0.000000,,2013-01-17 05:04:00,
2013-01-16 23:12:00,37.0,35.0,-100.00,WSW,257,2.0,3.0,91,0.00,,,0.14,0.000000,,2013-01-17 05:12:00,
2013-01-16 23:22:00,37.0,35.0,-100.00,WSW,257,2.0,3.0,91,0.00,,,0.14,0.000000,,2013-01-17 05:22:00,
2013-01-16 23:32:00,36.0,34.0,-100.00,NNW,347,0.0,3.0,91,0.00,,,0.11,0.000000,,2013-01-17 05:32:00,
2013-01-16 23:53:00,36.0,34.0,-100.00,NNW,347,0.0,3.0,91,0.00,,,0.11,0.000000,,2013-01-17 05:53:00,